QPF
0.02 0.04 0.07 0.09 0.12 0.08 0.06 0.05 0.03 0.02 0.02 0.02 0.02 0.03 0.04 0.08 0.14 0.19 0.17 0.10 0.07 0.07 0.08 0.08 0.11 0.11 0.08 0.06 0.06 0.06 0.06 0.06 0.07 0.07 0.07 0.08 0.07 0.07 0.09 0.12 0.12 0.11 0.09 0.05 0.04 0.05 0.07 0.07 0.10
0.03 0.07 0.10 0.11 0.09 0.06 0.05 0.04 0.03 0.01 0.01 0.01 0.02 0.02 0.04 0.07 0.07 0.13 0.14 0.09 0.05 0.06 0.07 0.11 0.14 0.14 0.13 0.09 0.06 0.06 0.07 0.08 0.07 0.07 0.08 0.10 0.11 0.11 0.09 0.09 0.09 0.09 0.07 0.05 0.03 0.04 0.06 0.06 0.08
0.05 0.08 0.14 0.12 0.08 0.06 0.04 0.02 0.01 0.01 0.01 0.01 0.03 0.02 0.03 0.06 0.04 0.08 0.10 0.07 0.05 0.06 0.06 0.10 0.15 0.16 0.16 0.15 0.10 0.08 0.10 0.09 0.07 0.06 0.07 0.08 0.09 0.10 0.08 0.07 0.07 0.07 0.06 0.04 0.04 0.03 0.07 0.06 0.07
0.06 0.14 0.18 0.12 0.06 0.04 0.02 0.01 0.00 0.00 0.01 0.02 0.05 0.04 0.04 0.04 0.04 0.07 0.07 0.05 0.04 0.04 0.05 0.09 0.14 0.16 0.16 0.16 0.14 0.11 0.09 0.08 0.07 0.07 0.08 0.08 0.08 0.09 0.08 0.06 0.06 0.07 0.07 0.06 0.06 0.04 0.08 0.09 0.07
0.09 0.14 0.13 0.07 0.03 0.02 0.01 0.01 0.00 0.00 0.01 0.02 0.04 0.03 0.05 0.04 0.06 0.06 0.04 0.03 0.03 0.04 0.05 0.10 0.17 0.20 0.20 0.21 0.15 0.11 0.09 0.09 0.07 0.08 0.09 0.08 0.08 0.09 0.07 0.07 0.07 0.07 0.08 0.07 0.07 0.07 0.11 0.10 0.08
0.16 0.20 0.14 0.05 0.02 0.01 0.00 0.00 0.01 0.02 0.01 0.01 0.01 0.02 0.04 0.05 0.05 0.04 0.03 0.02 0.02 0.02 0.03 0.09 0.18 0.23 0.29 0.25 0.16 0.13 0.11 0.09 0.09 0.10 0.09 0.08 0.09 0.11 0.10 0.09 0.09 0.10 0.10 0.10 0.11 0.13 0.14 0.14 0.14
0.12 0.17 0.11 0.04 0.02 0.01 0.01 0.01 0.01 0.02 0.02 0.02 0.01 0.02 0.03 0.04 0.04 0.03 0.02 0.01 0.02 0.02 0.04 0.07 0.12 0.20 0.27 0.25 0.21 0.15 0.10 0.08 0.09 0.10 0.12 0.13 0.12 0.13 0.12 0.11 0.14 0.15 0.12 0.10 0.11 0.19 0.21 0.17 0.17
0.07 0.09 0.07 0.04 0.01 0.02 0.01 0.01 0.02 0.01 0.02 0.01 0.00 0.01 0.03 0.02 0.02 0.02 0.01 0.02 0.02 0.01 0.02 0.05 0.08 0.11 0.16 0.18 0.19 0.15 0.10 0.10 0.13 0.12 0.11 0.11 0.12 0.14 0.14 0.11 0.14 0.16 0.12 0.10 0.11 0.18 0.28 0.22 0.16
0.07 0.05 0.04 0.04 0.02 0.02 0.01 0.02 0.02 0.01 0.01 0.02 0.02 0.01 0.02 0.02 0.01 0.02 0.03 0.05 0.03 0.02 0.02 0.03 0.06 0.08 0.09 0.12 0.14 0.15 0.13 0.13 0.12 0.10 0.09 0.08 0.07 0.08 0.09 0.11 0.13 0.12 0.10 0.10 0.10 0.11 0.16 0.18 0.15
0.04 0.02 0.01 0.02 0.01 0.01 0.01 0.02 0.01 0.02 0.01 0.02 0.04 0.03 0.02 0.01 0.01 0.01 0.03 0.03 0.03 0.03 0.04 0.04 0.05 0.07 0.09 0.11 0.12 0.11 0.11 0.10 0.07 0.06 0.05 0.04 0.06 0.07 0.08 0.11 0.12 0.09 0.08 0.09 0.11 0.09 0.10 0.11 0.08
0.03 0.01 0.00 0.01 0.01 0.01 0.01 0.01 0.00 0.02 0.01 0.01 0.01 0.02 0.02 0.02 0.03 0.02 0.03 0.01 0.02 0.03 0.04 0.03 0.02 0.04 0.05 0.06 0.08 0.07 0.08 0.08 0.05 0.03 0.03 0.04 0.07 0.10 0.08 0.07 0.10 0.10 0.08 0.08 0.08 0.07 0.05 0.05 0.04
0.01 0.00 0.00 0.01 0.01 0.01 0.01 0.01 0.00 0.01 0.01 0.00 0.00 0.01 0.01 0.02 0.02 0.02 0.02 0.01 0.02 0.02 0.02 0.01 0.01 0.01 0.02 0.03 0.05 0.06 0.08 0.08 0.05 0.03 0.03 0.06 0.11 0.10 0.04 0.03 0.04 0.05 0.05 0.05 0.04 0.05 0.04 0.03 0.03
0.00 0.00 0.00 0.00 0.01 0.01 0.01 0.01 0.01 0.00 0.00 0.00 0.01 0.01 0.01 0.01 0.01 0.01 0.02 0.01 0.01 0.01 0.01 0.01 0.01 0.00 0.00 0.01 0.03 0.05 0.07 0.07 0.05 0.04 0.04 0.06 0.07 0.05 0.02 0.02 0.02 0.03 0.04 0.04 0.04 0.03 0.03 0.03 0.03
0.00 0.00 0.00 0.00 0.00 0.00 0.00 0.00 0.00 0.01 0.01 0.01 0.00 0.00 0.00 0.00 0.01 0.01 0.01 0.01 0.01 0.01 0.01 0.01 0.00 0.00 0.00 0.00 0.01 0.03 0.05 0.05 0.04 0.04 0.04 0.04 0.06 0.05 0.04 0.02 0.02 0.03 0.04 0.04 0.04 0.02 0.03 0.03 0.03
0.00 0.01 0.01 0.00 0.00 0.01 0.01 0.01 0.01 0.01 0.01 0.01 0.00 0.00 0.00 0.00 0.00 0.00 0.01 0.01 0.01 0.01 0.01 0.01 0.01 0.00 0.00 0.00 0.01 0.01 0.03 0.04 0.04 0.04 0.04 0.06 0.07 0.06 0.05 0.05 0.03 0.03 0.04 0.05 0.03 0.03 0.04 0.04 0.03
0.00 0.01 0.01 0.01 0.01 0.01 0.01 0.01 0.01 0.01 0.01 0.01 0.01 0.00 0.00 0.00 0.00 0.00 0.01 0.01 0.01 0.01 0.01 0.01 0.00 0.00 0.01 0.00 0.01 0.02 0.02 0.03 0.03 0.04 0.05 0.07 0.08 0.08 0.07 0.06 0.04 0.04 0.04 0.05 0.05 0.06 0.06 0.04 0.05
0.01 0.01 0.01 0.01 0.01 0.01 0.01 0.01 0.00 0.01 0.01 0.01 0.00 0.00 0.00 0.00 0.01 0.01 0.01 0.01 0.01 0.01 0.01 0.01 0.01 0.01 0.01 0.01 0.02 0.03 0.03 0.02 0.02 0.03 0.04 0.05 0.06 0.08 0.08 0.08 0.06 0.05 0.05 0.07 0.11 0.14 0.08 0.04 0.04
0.02 0.01 0.01 0.01 0.00 0.01 0.01 0.00 0.00 0.00 0.01 0.01 0.00 0.00 0.00 0.01 0.01 0.01 0.01 0.01 0.01 0.01 0.01 0.01 0.01 0.01 0.01 0.02 0.02 0.02 0.02 0.03 0.03 0.03 0.01 0.02 0.03 0.04 0.08 0.12 0.10 0.07 0.08 0.10 0.10 0.08 0.07 0.07 0.06
0.02 0.02 0.01 0.01 0.00 0.01 0.01 0.01 0.01 0.01 0.01 0.01 0.00 0.00 0.00 0.00 0.00 0.01 0.01 0.01 0.01 0.01 0.02 0.01 0.01 0.01 0.01 0.01 0.01 0.01 0.01 0.01 0.02 0.01 0.01 0.01 0.01 0.02 0.05 0.11 0.13 0.09 0.08 0.09 0.09 0.09 0.09 0.10 0.10
0.01 0.01 0.01 0.01 0.01 0.01 0.01 0.01 0.01 0.01 0.01 0.01 0.01 0.00 0.00 0.00 0.00 0.01 0.02 0.02 0.01 0.01 0.01 0.01 0.01 0.01 0.01 0.00 0.00 0.00 0.01 0.02 0.02 0.01 0.01 0.01 0.01 0.02 0.02 0.07 0.13 0.13 0.11 0.11 0.12 0.12 0.12 0.12 0.12
0.00 0.00 0.01 0.01 0.01 0.01 0.01 0.02 0.02 0.01 0.01 0.01 0.01 0.01 0.01 0.00 0.01 0.01 0.02 0.02 0.01 0.01 0.01 0.01 0.00 0.00 0.00 0.00 0.00 0.00 0.00 0.02 0.02 0.01 0.02 0.02 0.01 0.01 0.01 0.02 0.06 0.10 0.11 0.10 0.10 0.10 0.10 0.10 0.11
0.00 0.00 0.00 0.00 0.00 0.01 0.01 0.02 0.02 0.02 0.01 0.01 0.01 0.02 0.01 0.01 0.01 0.01 0.01 0.02 0.01 0.01 0.01 0.01 0.01 0.01 0.00 0.01 0.00 0.00 0.00 0.01 0.01 0.01 0.02 0.02 0.02 0.02 0.01 0.01 0.01 0.03 0.05 0.08 0.07 0.06 0.05 0.07 0.08
0.00 0.00 0.00 0.00 0.00 0.01 0.01 0.01 0.01 0.02 0.01 0.01 0.01 0.01 0.01 0.01 0.01 0.01 0.01 0.01 0.01 0.01 0.01 0.01 0.00 0.00 0.01 0.01 0.01 0.01 0.01 0.01 0.02 0.03 0.03 0.02 0.02 0.03 0.03 0.02 0.02 0.02 0.02 0.03 0.04 0.05 0.04 0.05 0.06
0.00 0.00 0.00 0.00 0.00 0.00 0.01 0.01 0.01 0.02 0.01 0.01 0.01 0.01 0.01 0.01 0.01 0.01 0.01 0.01 0.01 0.01 0.01 0.00 0.01 0.01 0.01 0.02 0.03 0.03 0.03 0.02 0.03 0.04 0.04 0.03 0.03 0.03 0.03 0.02 0.03 0.03 0.02 0.01 0.02 0.02 0.02 0.02 0.03
0.00 0.00 0.00 0.00 0.01 0.01 0.01 0.01 0.01 0.02 0.01 0.01 0.01 0.01 0.01 0.01 0.01 0.01 0.01 0.01 0.01 0.01 0.01 0.01 0.02 0.02 0.03 0.03 0.03 0.03 0.03 0.03 0.04 0.04 0.05 0.05 0.04 0.05 0.05 0.03 0.03 0.03 0.03 0.03 0.03 0.03 0.03 0.04 0.04
0.00 0.00 0.01 0.01 0.01 0.02 0.01 0.01 0.02 0.01 0.01 0.01 0.01 0.02 0.02 0.02 0.02 0.02 0.02 0.02 0.02 0.01 0.01 0.01 0.01 0.02 0.03 0.02 0.03 0.04 0.05 0.06 0.08 0.08 0.08 0.07 0.07 0.07 0.06 0.04 0.03 0.05 0.05 0.06 0.07 0.07 0.05 0.05 0.05
0.00 0.00 0.00 0.01 0.01 0.01 0.02 0.03 0.02 0.02 0.01 0.01 0.01 0.01 0.01 0.01 0.01 0.01 0.01 0.01 0.02 0.01 0.01 0.01 0.01 0.01 0.01 0.01 0.02 0.02 0.02 0.03 0.05 0.08 0.08 0.06 0.05 0.03 0.03 0.02 0.03 0.03 0.05 0.04 0.03 0.03 0.04 0.04 0.04
0.00 0.00 0.00 0.01 0.02 0.02 0.03 0.04 0.04 0.03 0.02 0.01 0.00 0.00 0.01 0.01 0.01 0.01 0.01 0.01 0.01 0.01 0.01 0.01 0.00 0.00 0.01 0.01 0.01 0.01 0.01 0.01 0.02 0.03 0.02 0.03 0.03 0.04 0.04 0.03 0.03 0.03 0.03 0.04 0.04 0.03 0.04 0.04 0.04
0.00 0.01 0.01 0.01 0.02 0.03 0.04 0.05 0.04 0.04 0.03 0.02 0.01 0.00 0.01 0.01 0.01 0.01 0.01 0.01 0.01 0.02 0.02 0.01 0.01 0.01 0.01 0.01 0.01 0.01 0.01 0.01 0.01 0.03 0.04 0.04 0.03 0.05 0.05 0.03 0.02 0.02 0.02 0.03 0.04 0.04 0.04 0.04 0.04
0.01 0.02 0.01 0.02 0.03 0.03 0.04 0.04 0.03 0.03 0.02 0.02 0.01 0.01 0.01 0.01 0.01 0.01 0.01 0.01 0.01 0.02 0.02 0.02 0.01 0.01 0.01 0.01 0.01 0.01 0.02 0.03 0.03 0.08 0.09 0.04 0.03 0.03 0.03 0.02 0.02 0.01 0.01 0.03 0.04 0.04 0.04 0.04 0.03
MSLP
1010.67 1011.48 1012.34 1013.09 1013.58 1013.74 1013.55 1013.08 1012.47 1011.90 1011.53 1011.46 1011.73 1012.29 1013.03 1013.78 1014.39 1014.75 1014.82 1014.62 1014.24 1013.80 1013.42 1013.18 1013.14 1013.26 1013.50 1013.76 1013.99 1014.14 1014.21 1014.23 1014.24 1014.31 1014.47 1014.72 1015.05 1015.39 1015.70 1015.92 1016.05 1016.07 1016.04 1015.98 1015.95 1015.98 1016.08 1016.24 1016.44
1010.75 1011.67 1012.55 1013.24 1013.62 1013.61 1013.26 1012.65 1011.94 1011.33 1010.96 1010.92 1011.24 1011.84 1012.60 1013.35 1013.96 1014.31 1014.39 1014.23 1013.91 1013.57 1013.30 1013.18 1013.23 1013.44 1013.73 1014.03 1014.27 1014.43 1014.50 1014.52 1014.54 1014.61 1014.77 1015.00 1015.29 1015.59 1015.85 1016.03 1016.12 1016.13 1016.09 1016.05 1016.04 1016.09 1016.20 1016.37 1016.57
1011.00 1011.96 1012.82 1013.41 1013.64 1013.48 1012.97 1012.26 1011.51 1010.90 1010.57 1010.60 1010.97 1011.61 1012.37 1013.09 1013.66 1013.98 1014.04 1013.89 1013.62 1013.35 1013.17 1013.15 1013.29 1013.56 1013.89 1014.21 1014.47 1014.63 1014.71 1014.74 1014.78 1014.85 1015.00 1015.21 1015.46 1015.70 1015.91 1016.05 1016.12 1016.13 1016.11 1016.10 1016.13 1016.21 1016.34 1016.51 1016.70
1011.36 1012.32 1013.09 1013.54 1013.61 1013.29 1012.68 1011.93 1011.19 1010.65 1010.41 1010.53 1010.97 1011.63 1012.37 1013.04 1013.54 1013.79 1013.81 1013.65 1013.42 1013.21 1013.11 1013.15 1013.36 1013.67 1014.02 1014.34 1014.60 1014.77 1014.86 1014.90 1014.95 1015.04 1015.17 1015.36 1015.57 1015.77 1015.93 1016.04 1016.10 1016.12 1016.14 1016.18 1016.26 1016.38 1016.53 1016.69 1016.85
1011.76 1012.64 1013.27 1013.55 1013.45 1013.01 1012.34 1011.60 1010.94 1010.53 1010.43 1010.67 1011.18 1011.86 1012.56 1013.17 1013.58 1013.75 1013.72 1013.55 1013.34 1013.18 1013.14 1013.24 1013.48 1013.80 1014.14 1014.45 1014.70 1014.86 1014.95 1015.02 1015.09 1015.19 1015.33 1015.50 1015.67 1015.83 1015.96 1016.04 1016.10 1016.15 1016.21 1016.31 1016.44 1016.60 1016.76 1016.91 1017.02
1012.08 1012.81 1013.24 1013.33 1013.07 1012.54 1011.86 1011.20 1010.69 1010.45 1010.53 1010.91 1011.50 1012.19 1012.86 1013.38 1013.70 1013.80 1013.73 1013.55 1013.37 1013.26 1013.27 1013.41 1013.67 1013.97 1014.29 1014.56 1014.77 1014.92 1015.02 1015.10 1015.20 1015.32 1015.48 1015.64 1015.80 1015.93 1016.03 1016.10 1016.16 1016.23 1016.34 1016.48 1016.66 1016.85 1017.01 1017.14 1017.20
1012.22 1012.73 1012.93 1012.81 1012.41 1011.82 1011.19 1010.66 1010.34 1010.32 1010.59 1011.12 1011.79 1012.50 1013.12 1013.57 1013.80 1013.85 1013.75 1013.59 1013.45 1013.40 1013.47 1013.64 1013.90 1014.18 1014.45 1014.67 1014.83 1014.95 1015.05 1015.15 1015.29 1015.45 1015.63 1015.81 1015.96 1016.08 1016.16 1016.21 1016.27 1016.35 1016.49 1016.66 1016.87 1017.07 1017.24 1017.33 1017.36
1012.09 1012.37 1012.32 1012.00 1011.48 1010.88 1010.33 1009.96 1009.85 1010.06 1010.53 1011.19 1011.94 1012.65 1013.22 1013.61 1013.78 1013.79 1013.69 1013.58 1013.51 1013.53 1013.66 1013.87 1014.12 1014.38 1014.59 1014.75 1014.86 1014.95 1015.04 1015.17 1015.34 1015.55 1015.77 1015.97 1016.14 1016.25 1016.31 1016.35 1016.39 1016.48 1016.61 1016.80 1017.02 1017.23 1017.38 1017.46 1017.45
1011.72 1011.74 1011.47 1010.97 1010.36 1009.78 1009.33 1009.14 1009.25 1009.66 1010.31 1011.09 1011.88 1012.58 1013.11 1013.43 1013.57 1013.56 1013.50 1013.45 1013.46 1013.58 1013.77 1014.03 1014.28 1014.50 1014.66 1014.76 1014.82 1014.88 1014.97 1015.12 1015.33 1015.59 1015.85 1016.09 1016.28 1016.39 1016.44 1016.46 1016.49 1016.55 1016.68 1016.86 1017.07 1017.27 1017.42 1017.48 1017.45
1011.18 1010.98 1010.51 1009.88 1009.22 1008.67 1008.34 1008.31 1008.61 1009.19 1009.96 1010.81 1011.62 1012.29 1012.77 1013.05 1013.15 1013.15 1013.14 1013.16 1013.28 1013.48 1013.76 1014.05 1014.31 1014.51 1014.63 1014.67 1014.69 1014.72 1014.81 1014.97 1015.22 1015.53 1015.84 1016.12 1016.33 1016.45 1016.50 1016.50 1016.51 1016.55 1016.65 1016.81 1017.00 1017.20 1017.34 1017.40 1017.37
1010.61 1010.23 1009.61 1008.90 1008.22 1007.72 1007.50 1007.60 1008.03 1008.73 1009.57 1010.44 1011.23 1011.85 1012.27 1012.49 1012.58 1012.60 1012.63 1012.73 1012.93 1013.23 1013.56 1013.90 1014.18 1014.36 1014.44 1014.46 1014.44 1014.45 1014.54 1014.72 1015.00 1015.34 1015.69 1016.01 1016.25 1016.39 1016.44 1016.44 1016.43 1016.45 1016.53 1016.66 1016.84 1017.02 1017.16 1017.22 1017.20
1010.15 1009.65 1008.95 1008.20 1007.53 1007.08 1006.94 1007.14 1007.64 1008.38 1009.22 1010.06 1010.79 1011.33 1011.68 1011.86 1011.92 1011.95 1012.03 1012.19 1012.46 1012.81 1013.20 1013.57 1013.86 1014.04 1014.11 1014.11 1014.08 1014.09 1014.17 1014.36 1014.66 1015.02 1015.40 1015.74 1016.01 1016.18 1016.26 1016.27 1016.26 1016.27 1016.33 1016.45 1016.61 1016.78 1016.92 1016.99 1016.99
1009.92 1009.37 1008.64 1007.89 1007.25 1006.84 1006.75 1006.97 1007.48 1008.19 1008.98 1009.73 1010.36 1010.82 1011.09 1011.22 1011.26 1011.30 1011.40 1011.60 1011.90 1012.28 1012.69 1013.07 1013.37 1013.56 1013.64 1013.65 1013.64 1013.65 1013.74 1013.93 1014.23 1014.59 1014.98 1015.34 1015.63 1015.83 1015.94 1015.98 1016.00 1016.02 1016.09 1016.20 1016.35 1016.51 1016.66 1016.74 1016.75
1009.99 1009.43 1008.72 1007.99 1007.38 1007.00 1006.91 1007.11 1007.56 1008.17 1008.84 1009.47 1009.99 1010.35 1010.56 1010.64 1010.67 1010.70 1010.80 1011.00 1011.29 1011.66 1012.07 1012.44 1012.75 1012.97 1013.08 1013.13 1013.15 1013.19 1013.30 1013.49 1013.76 1014.11 1014.47 1014.83 1015.13 1015.36 1015.52 1015.61 1015.67 1015.74 1015.82 1015.95 1016.10 1016.26 1016.41 1016.50 1016.52
1010.30 1009.76 1009.08 1008.40 1007.82 1007.45 1007.33 1007.45 1007.78 1008.25 1008.76 1009.25 1009.64 1009.91 1010.06 1010.12 1010.14 1010.17 1010.25 1010.42 1010.68 1011.01 1011.38 1011.74 1012.06 1012.31 1012.48 1012.60 1012.68 1012.77 1012.90 1013.08 1013.33 1013.62 1013.95 1014.28 1014.57 1014.83 1015.03 1015.18 1015.31 1015.43 1015.56 1015.71 1015.87 1016.03 1016.18 1016.28 1016.31
1010.75 1010.24 1009.61 1008.97 1008.43 1008.04 1007.86 1007.87 1008.04 1008.33 1008.67 1008.99 1009.26 1009.46 1009.58 1009.63 1009.66 1009.69 1009.75 1009.88 1010.09 1010.35 1010.67 1011.00 1011.33 1011.63 1011.88 1012.09 1012.27 1012.42 1012.58 1012.76 1012.96 1013.20 1013.45 1013.73 1014.00 1014.26 1014.50 1014.71 1014.91 1015.10 1015.29 1015.47 1015.65 1015.82 1015.96 1016.06 1016.10
1011.18 1010.70 1010.14 1009.56 1009.05 1008.65 1008.38 1008.26 1008.25 1008.33 1008.47 1008.64 1008.80 1008.93 1009.04 1009.12 1009.17 1009.22 1009.28 1009.37 1009.50 1009.70 1009.95 1010.26 1010.60 1010.95 1011.30 1011.63 1011.91 1012.16 1012.36 1012.53 1012.69 1012.85 1013.02 1013.22 1013.44 1013.69 1013.95 1014.22 1014.49 1014.75 1014.99 1015.22 1015.42 1015.59 1015.74 1015.84 1015.89
1011.46 1011.04 1010.55 1010.06 1009.59 1009.18 1008.84 1008.57 1008.36 1008.23 1008.16 1008.16 1008.21 1008.30 1008.41 1008.53 1008.64 1008.72 1008.79 1008.85 1008.93 1009.06 1009.25 1009.52 1009.87 1010.29 1010.74 1011.19 1011.60 1011.94 1012.20 1012.38 1012.49 1012.57 1012.65 1012.76 1012.91 1013.13 1013.40 1013.71 1014.03 1014.35 1014.65 1014.91 1015.14 1015.32 1015.47 1015.58 1015.65
1011.52 1011.18 1010.81 1010.43 1010.05 1009.65 1009.24 1008.83 1008.42 1008.06 1007.77 1007.59 1007.52 1007.56 1007.69 1007.86 1008.04 1008.18 1008.27 1008.33 1008.36 1008.42 1008.56 1008.79 1009.15 1009.62 1010.17 1010.74 1011.28 1011.72 1012.05 1012.24 1012.32 1012.33 1012.32 1012.33 1012.41 1012.58 1012.84 1013.17 1013.53 1013.90 1014.25 1014.55 1014.79 1014.99 1015.14 1015.27 1015.37
1011.36 1011.15 1010.95 1010.74 1010.47 1010.12 1009.67 1009.12 1008.52 1007.92 1007.39 1007.01 1006.81 1006.78 1006.91 1007.13 1007.38 1007.60 1007.74 1007.79 1007.80 1007.81 1007.89 1008.08 1008.44 1008.94 1009.56 1010.24 1010.88 1011.43 1011.83 1012.05 1012.11 1012.07 1011.97 1011.90 1011.91 1012.03 1012.26 1012.59 1012.99 1013.39 1013.77 1014.10 1014.36 1014.57 1014.74 1014.88 1015.02
1011.04 1011.03 1011.06 1011.07 1010.98 1010.71 1010.24 1009.57 1008.76 1007.91 1007.14 1006.53 1006.16 1006.04 1006.15 1006.40 1006.72 1007.01 1007.20 1007.28 1007.28 1007.25 1007.27 1007.41 1007.73 1008.24 1008.90 1009.64 1010.36 1010.99 1011.46 1011.72 1011.78 1011.71 1011.56 1011.43 1011.38 1011.45 1011.66 1011.98 1012.39 1012.81 1013.22 1013.57 1013.85 1014.07 1014.25 1014.43 1014.60
1010.69 1010.94 1011.26 1011.53 1011.65 1011.49 1011.02 1010.25 1009.24 1008.13 1007.09 1006.23 1005.67 1005.42 1005.48 1005.75 1006.11 1006.47 1006.72 1006.83 1006.82 1006.75 1006.71 1006.78 1007.05 1007.52 1008.17 1008.92 1009.70 1010.38 1010.90 1011.20 1011.28 1011.21 1011.05 1010.88 1010.79 1010.83 1011.01 1011.33 1011.74 1012.17 1012.59 1012.96 1013.25 1013.49 1013.70 1013.89 1014.11
1010.39 1010.94 1011.58 1012.15 1012.49 1012.47 1012.01 1011.13 1009.94 1008.58 1007.26 1006.15 1005.37 1004.98 1004.96 1005.21 1005.62 1006.03 1006.33 1006.48 1006.47 1006.37 1006.26 1006.25 1006.42 1006.81 1007.40 1008.13 1008.90 1009.60 1010.15 1010.49 1010.61 1010.56 1010.40 1010.23 1010.13 1010.15 1010.32 1010.62 1011.03 1011.47 1011.90 1012.27 1012.58 1012.84 1013.06 1013.29 1013.54
1010.19 1011.06 1012.02 1012.87 1013.43 1013.52 1013.08 1012.12 1010.76 1009.18 1007.60 1006.25 1005.26 1004.72 1004.61 1004.84 1005.26 1005.72 1006.08 1006.26 1006.26 1006.12 1005.94 1005.83 1005.89 1006.17 1006.65 1007.30 1008.03 1008.71 1009.27 1009.63 1009.79 1009.77 1009.64 1009.48 1009.39 1009.40 1009.56 1009.86 1010.26 1010.70 1011.13 1011.52 1011.84 1012.11 1012.36 1012.61 1012.89
1010.08 1011.23 1012.46 1013.55 1014.28 1014.47 1014.04 1013.02 1011.52 1009.75 1007.98 1006.43 1005.28 1004.62 1004.43 1004.63 1005.07 1005.56 1005.97 1006.18 1006.19 1006.03 1005.79 1005.58 1005.51 1005.65 1006.00 1006.54 1007.17 1007.80 1008.33 1008.70 1008.87 1008.88 1008.79 1008.66 1008.58 1008.60 1008.75 1009.04 1009.42 1009.86 1010.29 1010.69 1011.03 1011.32 1011.58 1011.85 1012.16
1009.99 1011.34 1012.77 1014.01 1014.85 1015.10 1014.67 1013.60 1012.02 1010.15 1008.25 1006.59 1005.34 1004.60 1004.37 1004.56 1005.02 1005.55 1006.00 1006.26 1006.28 1006.10 1005.81 1005.51 1005.31 1005.31 1005.51 1005.90 1006.41 1006.94 1007.42 1007.76 1007.94 1007.96 1007.89 1007.78 1007.71 1007.73 1007.88 1008.15 1008.52 1008.95 1009.38 1009.78 1010.14 1010.45 1010.74 1011.04 1011.36
1009.82 1011.28 1012.78 1014.08 1014.94 1015.20 1014.77 1013.69 1012.10 1010.21 1008.30 1006.62 1005.36 1004.62 1004.40 1004.61 1005.09 1005.67 1006.16 1006.45 1006.50 1006.32 1005.99 1005.62 1005.32 1005.18 1005.23 1005.46 1005.82 1006.23 1006.61 1006.89 1007.04 1007.06 1006.98 1006.88 1006.81 1006.82 1006.95 1007.20 1007.56 1007.97 1008.40 1008.81 1009.19 1009.53 1009.85 1010.17 1010.51
1009.49 1010.93 1012.39 1013.64 1014.46 1014.69 1014.26 1013.20 1011.67 1009.87 1008.07 1006.49 1005.32 1004.66 1004.50 1004.75 1005.28 1005.89 1006.42 1006.75 1006.82 1006.65 1006.31 1005.89 1005.51 1005.25 1005.16 1005.23 1005.44 1005.71 1005.96 1006.14 1006.22 1006.19 1006.09 1005.96 1005.87 1005.87 1005.97 1006.20 1006.53 1006.93 1007.36 1007.79 1008.20 1008.57 1008.93 1009.28 1009.64
1008.96 1010.28 1011.60 1012.70 1013.40 1013.56 1013.14 1012.17 1010.78 1009.18 1007.58 1006.21 1005.23 1004.72 1004.67 1004.99 1005.56 1006.20 1006.75 1007.11 1007.20 1007.05 1006.71 1006.28 1005.84 1005.49 1005.28 1005.21 1005.25 1005.36 1005.46 1005.51 1005.48 1005.37 1005.21 1005.04 1004.91 1004.87 1004.95 1005.16 1005.47 1005.87 1006.31 1006.76 1007.20 1007.62 1008.01 1008.40 1008.79
1008.29 1009.40 1010.48 1011.37 1011.91 1011.99 1011.60 1010.76 1009.59 1008.26 1006.97 1005.89 1005.16 1004.85 1004.93 1005.33 1005.93 1006.58 1007.13 1007.48 1007.59 1007.46 1007.14 1006.70 1006.25 1005.84 1005.52 1005.32 1005.20 1005.13 1005.06 1004.96 1004.79 1004.57 1004.33 1004.09 1003.92 1003.85 1003.90 1004.10 1004.41 1004.81 1005.27 1005.76 1006.25 1006.71 1007.15 1007.58 1008.00
Thickness
5818 5815 5811 5801 5782 5766 5764 5778 5791 5792 5794 5801 5805 5799 5787 5780 5772 5765 5789 5797 5796 5795 5795 5796 5797 5798 5798 5797 5796 5795 5795 5795 5794 5793 5793 5792 5791 5790 5788 5787 5786 5785 5783 5783 5782 5781 5780 5779 5778
5820 5817 5806 5792 5771 5752 5764 5785 5790 5796 5802 5806 5804 5798 5789 5784 5790 5789 5792 5796 5797 5796 5796 5796 5798 5799 5799 5797 5796 5795 5795 5794 5793 5792 5792 5791 5790 5789 5787 5786 5784 5783 5783 5782 5782 5781 5779 5778 5777
5823 5819 5800 5783 5770 5762 5771 5791 5797 5806 5812 5808 5798 5797 5790 5785 5791 5792 5796 5798 5797 5796 5796 5796 5797 5797 5797 5796 5795 5794 5794 5793 5792 5792 5791 5790 5789 5788 5787 5785 5783 5782 5781 5781 5781 5780 5778 5777 5775
5822 5809 5796 5778 5772 5786 5793 5800 5807 5805 5807 5807 5799 5788 5791 5798 5798 5798 5800 5799 5796 5795 5795 5795 5796 5795 5795 5794 5794 5794 5793 5792 5792 5791 5790 5789 5788 5787 5785 5784 5782 5781 5780 5780 5780 5779 5777 5776 5774
5818 5800 5782 5772 5781 5798 5809 5813 5813 5804 5802 5800 5797 5783 5783 5798 5804 5802 5801 5799 5796 5794 5794 5794 5794 5794 5793 5793 5794 5793 5793 5793 5792 5791 5789 5788 5787 5786 5784 5783 5781 5780 5779 5778 5778 5777 5776 5774 5773
5806 5795 5773 5768 5785 5803 5812 5818 5815 5806 5802 5801 5796 5785 5782 5797 5800 5800 5800 5798 5797 5795 5794 5793 5792 5793 5792 5793 5793 5792 5792 5792 5791 5790 5789 5788 5786 5785 5784 5782 5780 5778 5777 5777 5776 5776 5774 5773 5771
5802 5789 5775 5780 5787 5796 5809 5821 5814 5806 5801 5803 5803 5785 5783 5792 5799 5801 5800 5798 5796 5795 5793 5792 5791 5791 5791 5792 5792 5791 5790 5790 5789 5788 5787 5786 5785 5784 5782 5781 5779 5778 5777 5776 5775 5774 5773 5771 5770
5816 5796 5783 5786 5789 5794 5815 5821 5821 5814 5807 5815 5810 5788 5781 5793 5801 5801 5799 5796 5795 5793 5792 5791 5791 5791 5791 5790 5791 5790 5788 5788 5787 5787 5786 5785 5784 5782 5781 5780 5778 5777 5776 5774 5773 5772 5770 5770 5769
5825 5792 5781 5792 5796 5802 5818 5817 5819 5823 5815 5813 5812 5805 5803 5804 5802 5797 5793 5791 5790 5790 5790 5790 5790 5790 5790 5789 5788 5788 5787 5786 5785 5785 5784 5783 5782 5781 5780 5779 5778 5776 5775 5773 5772 5771 5770 5768 5767
5815 5788 5797 5816 5819 5816 5820 5819 5818 5813 5805 5802 5803 5806 5808 5805 5799 5793 5789 5786 5786 5786 5787 5789 5789 5789 5789 5789 5788 5786 5785 5784 5783 5783 5782 5782 5781 5780 5779 5778 5777 5775 5774 5772 5771 5770 5769 5767 5766
5819 5807 5821 5828 5832 5830 5822 5821 5824 5810 5797 5801 5800 5801 5804 5801 5797 5793 5791 5790 5789 5788 5789 5789 5789 5789 5788 5788 5787 5785 5784 5784 5783 5782 5782 5781 5780 5779 5778 5777 5775 5774 5773 5771 5770 5769 5767 5767 5765
5824 5827 5834 5833 5837 5832 5825 5822 5818 5814 5810 5818 5815 5811 5806 5800 5797 5795 5793 5792 5791 5790 5790 5790 5790 5789 5789 5788 5787 5785 5784 5783 5782 5782 5781 5780 5779 5778 5777 5775 5774 5773 5772 5770 5769 5767 5767 5766 5765
5826 5829 5838 5839 5838 5834 5829 5821 5817 5815 5822 5822 5817 5811 5805 5801 5799 5799 5798 5796 5794 5791 5791 5791 5791 5790 5789 5787 5787 5785 5784 5783 5783 5782 5781 5780 5779 5778 5776 5775 5774 5772 5771 5770 5768 5767 5766 5765 5764
5832 5832 5834 5835 5834 5833 5824 5819 5816 5813 5822 5817 5813 5808 5806 5804 5801 5799 5797 5796 5795 5794 5793 5793 5792 5791 5789 5787 5786 5786 5785 5784 5783 5782 5781 5780 5779 5778 5776 5774 5773 5772 5771 5770 5768 5767 5765 5764 5763
5838 5824 5823 5829 5831 5829 5824 5805 5809 5818 5819 5812 5810 5809 5807 5806 5804 5802 5800 5799 5798 5796 5796 5794 5793 5792 5790 5788 5787 5786 5785 5784 5783 5782 5781 5780 5779 5778 5776 5774 5773 5772 5770 5769 5767 5766 5764 5762 5761
5826 5811 5800 5820 5829 5829 5813 5787 5810 5821 5816 5808 5809 5809 5807 5806 5806 5806 5805 5802 5801 5799 5797 5796 5796 5793 5791 5789 5788 5787 5785 5785 5783 5782 5781 5780 5779 5778 5776 5774 5773 5772 5770 5768 5765 5763 5761 5760 5759
5803 5791 5794 5810 5830 5827 5812 5794 5812 5820 5816 5809 5809 5808 5807 5805 5806 5808 5808 5806 5804 5801 5799 5796 5796 5793 5792 5790 5789 5788 5786 5785 5783 5783 5782 5781 5779 5778 5776 5774 5773 5771 5769 5767 5765 5762 5760 5757 5756
5789 5793 5798 5803 5822 5822 5810 5804 5813 5820 5817 5812 5810 5809 5808 5806 5807 5810 5810 5808 5806 5803 5801 5798 5796 5794 5792 5790 5788 5786 5785 5784 5784 5783 5782 5781 5779 5778 5776 5774 5772 5770 5767 5765 5763 5760 5759 5757 5755
5812 5804 5799 5810 5827 5817 5808 5806 5811 5817 5815 5812 5810 5809 5808 5809 5812 5812 5811 5809 5806 5803 5800 5798 5795 5794 5792 5789 5786 5783 5781 5782 5783 5783 5782 5781 5779 5777 5775 5773 5771 5769 5766 5764 5762 5760 5757 5755 5754
5814 5802 5801 5812 5827 5818 5806 5805 5813 5816 5816 5816 5814 5811 5811 5810 5809 5809 5809 5807 5805 5802 5801 5799 5797 5795 5794 5792 5789 5787 5785 5783 5783 5783 5781 5780 5779 5777 5775 5772 5769 5767 5765 5762 5760 5758 5755 5753 5752
5810 5804 5804 5805 5815 5816 5803 5790 5799 5812 5816 5817 5818 5817 5816 5814 5810 5809 5808 5807 5805 5803 5802 5802 5799 5797 5795 5794 5791 5788 5784 5782 5780 5779 5779 5779 5778 5776 5773 5771 5769 5767 5764 5761 5759 5757 5754 5749 5749
5802 5822 5819 5812 5796 5784 5793 5764 5786 5801 5804 5810 5813 5814 5814 5816 5814 5811 5809 5806 5806 5805 5805 5803 5800 5798 5796 5794 5790 5786 5781 5777 5778 5778 5778 5777 5776 5775 5773 5771 5769 5766 5763 5760 5759 5757 5754 5750 5746
5819 5833 5824 5813 5795 5782 5784 5767 5777 5796 5792 5802 5810 5815 5816 5817 5817 5814 5812 5810 5809 5807 5805 5803 5801 5798 5796 5794 5791 5786 5783 5781 5779 5778 5776 5775 5774 5773 5772 5770 5768 5765 5763 5761 5758 5756 5754 5751 5748
5836 5824 5812 5798 5781 5761 5774 5767 5766 5786 5797 5804 5812 5816 5819 5819 5818 5815 5814 5811 5808 5807 5805 5802 5799 5797 5796 5793 5790 5787 5783 5780 5777 5775 5773 5772 5771 5771 5770 5768 5766 5763 5761 5759 5757 5755 5753 5751 5749
5823 5789 5761 5755 5745 5750 5775 5769 5772 5802 5813 5814 5815 5817 5821 5820 5817 5814 5811 5809 5807 5805 5804 5801 5798 5795 5794 5792 5789 5786 5783 5780 5777 5774 5772 5770 5768 5767 5767 5766 5763 5761 5759 5757 5756 5753 5751 5750 5747
5809 5790 5755 5740 5737 5749 5769 5764 5785 5813 5820 5822 5822 5821 5821 5818 5817 5815 5813 5811 5808 5806 5804 5800 5797 5794 5792 5790 5787 5785 5783 5780 5777 5775 5772 5770 5768 5767 5766 5764 5762 5760 5758 5756 5753 5751 5750 5748 5746
5803 5790 5789 5762 5755 5746 5754 5772 5792 5811 5813 5815 5816 5816 5816 5816 5816 5815 5814 5812 5809 5806 5804 5801 5797 5793 5791 5788 5785 5783 5781 5779 5776 5774 5772 5770 5768 5767 5764 5762 5759 5757 5755 5753 5751 5748 5747 5746 5744
5816 5802 5775 5755 5736 5730 5747 5757 5764 5787 5795 5804 5808 5810 5813 5815 5815 5814 5813 5812 5809 5806 5804 5801 5797 5793 5790 5788 5785 5783 5780 5778 5776 5773 5770 5767 5766 5765 5762 5760 5757 5755 5753 5751 5748 5746 5745 5743 5742
5801 5793 5774 5755 5749 5732 5727 5746 5790 5792 5798 5800 5804 5808 5810 5811 5813 5812 5812 5811 5809 5805 5801 5797 5794 5791 5787 5785 5783 5780 5778 5776 5774 5770 5767 5765 5763 5761 5759 5757 5755 5752 5750 5748 5745 5743 5742 5739 5738
5804 5793 5774 5752 5744 5741 5733 5750 5802 5801 5803 5804 5804 5807 5809 5811 5812 5811 5809 5807 5805 5802 5799 5795 5792 5788 5786 5783 5780 5777 5774 5772 5770 5767 5764 5762 5760 5758 5756 5754 5752 5750 5747 5745 5742 5739 5738 5736 5734